Location: Clanezzo
(45.7500°N, 9.6000°E)
Time: 12:36:25
(UTC+00:00)

Daily predictions for brighter satellites

Satellite Brightness Start Highest point End
(mag) Time Altitude Azimuth Time Altitude Azimuth Time Altitude Azimuth
SL-4 R/B 4.1 19:10:23 10° W 19:13:49 23° SW 19:17:23 10° S
OE (NEXTSAT) 4.3 19:13:32 10° W 19:17:01 84° SSW 19:20:29 10° ESE
Cosmos 1633 Rocket 4.0 19:14:28 10° N 19:18:27 33° ENE 19:22:26 10° SE
USA 290 2.2 19:16:14 10° NNW 19:19:30 86° WSW 19:22:43 10° SSE
Cosmos 1486 Rocket 4.4 19:17:23 10° SSW 19:22:42 74° WNW 19:28:04 10° NNE
CZ-4C R/B 3.4 19:16:01 10° NNW 19:22:55 53° NE 19:30:57 10° ESE
Cosmos 1328 Rocket 4.5 19:24:00 10° SSE 19:27:52 30° E 19:31:45 10° NNE
SPOT 3 Rocket 3.9 19:26:33 10° SE 19:31:29 48° ENE 19:36:26 10° N
Cosmos 1386 Rocket 4.5 19:25:45 10° N 19:31:50 90° E 19:37:58 10° S
Landsat 7 4.4 19:27:37 10° SE 19:32:03 41° ENE 19:36:32 10° N
Cosmos 1500 4.3 19:33:04 10° NNE 19:36:20 28° ENE 19:39:08 12° SE
USA 307 4.0 19:32:21 10° NW 19:36:24 39° NNE 19:40:26 10° E
Cosmos 773 Rocket 4.3 19:34:28 10° NNW 19:39:44 58° ENE 19:44:36 12° SE
Meteor 1-26 Rocket 4.3 19:34:48 10° S 19:40:21 60° E 19:45:46 10° NNE
ARIANE 5 R/B 4.1 19:37:55 11° ESE 19:41:06 22° ENE 19:44:28 10° NNE
Meteor 2-17 Rocket 4.5 19:35:11 10° N 19:41:21 70° E 19:47:27 10° SSE
Resurs 1-3 3.8 19:38:16 10° S 19:42:38 76° WSW 19:47:03 10° NNW
Cosmos 2082 Rocket 3.5 19:40:35 10° N 19:45:19 27° NE 19:49:52 11° ESE
Cosmos 1666 Rocket 3.5 19:43:27 10° N 19:47:52 80° E 19:52:13 10° SSE
Cosmos 1745 Rocket 4.3 19:42:04 10° NNW 19:48:13 68° W 19:54:17 10° S
Spot 2 Rocket 4.4 19:44:40 13° SE 19:48:36 32° ENE 19:53:04 10° N
BREEZE-M R/B 2.4 19:47:18 10° W 19:49:56 54° NNW 19:52:21 10° ENE
USA 308 3.7 19:46:00 10° NW 19:50:08 45° NNE 19:54:09 11° E
Cosmos 1709 Rocket 3.9 19:44:24 10° N 19:50:33 76° E 19:56:39 10° SSE
ERS-1 Rocket 4.3 19:50:09 12° ESE 19:53:38 25° ENE 19:57:40 10° N
COSMOS 2406 3.5 19:49:32 10° NNW 19:55:07 54° ENE 19:59:35 16° SE
Meteor 1-14 Rocket 4.4 19:49:38 10° N 19:55:27 60° ENE 20:00:26 14° SSE
BREEZE-M DEB (TANK) 4.0 19:49:53 10° WNW 19:58:52 50° SW 20:01:13 18° SSE
SJ 16-02 2.3 19:55:59 14° SSE 19:58:59 28° E 20:02:48 10° NE
MetOp-B 4.2 19:54:09 12° SSE 19:59:00 66° ENE 20:04:19 10° N
Cosmos 1242 Rocket 3.3 19:55:31 10° SSW 19:59:00 53° WNW 20:02:29 10° N
Sich 1 4.0 19:55:02 10° NNW 19:59:11 46° W 20:03:21 10° SSW
Cosmos 1437 2.4 19:56:52 13° S 19:59:17 56° E 20:02:06 10° NNE
GPS 2-04 Rocket1 4.3 19:56:39 10° SW 19:59:35 19° S 20:00:47 17° SSE
USA 245 3.2 20:02:46 23° E 20:03:15 26° ENE 20:05:14 10° N
Cosmos 1271 Rocket 4.0 20:05:27 20° SE 20:07:01 25° E 20:10:19 10° NE
CRYOSAT 2 4.4 20:03:05 12° SSE 20:07:31 71° E 20:12:25 10° N
Cosmos 2278 Rocket 2.3 20:04:32 10° S 20:10:02 54° ESE 20:15:33 10° NE
CZ-2C R/B 3.7 20:07:01 10° NNE 20:11:30 66° ESE 20:16:01 10° S
Cosmos 1943 Rocket 4.2 20:12:58 10° E 20:12:58 10° E 20:13:13 10° E
Cosmos 1602 4.5 20:09:47 10° NNW 20:13:33 51° W 20:17:19 10° S
Cosmos 1777 Rocket 3.9 20:09:01 10° SSW 20:14:12 76° ESE 20:19:25 10° NNE
CREW DRAGON DEMO-1 DEB 2.9 20:11:40 10° NW 20:14:16 55° NNE 20:15:24 28° E
Cosmos 1151 Rocket 3.3 20:10:02 10° SSW 20:14:23 70° W 20:18:46 10° N
Cosmos 2084 3.8 20:10:38 10° SW 20:14:45 65° NW 20:18:59 10° NE
Cosmos 2315 Rocket 4.1 20:10:41 10° S 20:17:03 83° W 20:23:29 10° N
Akebono 3.9 20:14:57 10° NNW 20:17:09 70° WSW 20:17:41 43° S
Ariane Rocket 4.5 20:15:26 10° SSW 20:19:59 34° W 20:24:35 10° NNW
Cosmos 1782 3.5 20:16:59 10° SSW 20:20:54 55° WNW 20:24:49 10° N
ATLAS 5 CENTAUR R/B 3.6 20:22:47 10° NW 20:28:01 35° WSW 20:33:25 12° S
Resurs 01 Rocket 2.7 20:25:37 10° S 20:29:49 42° W 20:34:03 10° NNW
USA 305 2.9 20:25:50 10° NW 20:30:07 77° NNE 20:32:22 27° ESE
Cosmos 2228 Rocket 3.8 20:29:53 27° SE 20:31:22 34° E 20:35:26 10° NNE
Cosmos 1812 2.7 20:32:28 18° S 20:35:17 84° W 20:39:11 10° N
NOSS 3-4 (A) 4.0 20:28:38 10° NW 20:35:35 70° NE 20:40:43 23° SE
NOSS 3-4 (C) 4.0 20:28:45 10° NW 20:35:42 70° NE 20:40:50 23° SE
Terra 2.5 20:37:19 26° ESE 20:39:24 41° ENE 20:43:53 10° N
Meteor 1-11 Rocket 4.1 20:33:59 10° N 20:39:51 55° ENE 20:42:59 27° SE
X-37B 2.5 20:38:52 10° WSW 20:41:05 18° SSW 20:41:05 18° SSW
Cosmos 1666 2.5 20:38:08 10° N 20:41:54 83° E 20:43:16 37° SSE
Cosmos 1833 Rocket 3.0 20:42:02 10° NNW 20:47:38 63° WSW 20:50:56 25° S
Cosmos 1340 Rocket 4.1 20:45:00 10° NNE 20:48:28 26° ENE 20:49:18 24° E
ATLAS 2AS CENTAUR R/B 3.2 20:41:45 10° NW 20:49:02 54° NE 20:53:31 22° ESE
Cosmos 1515 Rocket 3.9 20:45:53 15° SSW 20:49:30 66° W 20:53:53 10° N
USA 306 2.8 20:45:14 10° WNW 20:49:31 82° SW 20:51:02 39° SE
SPOT 5 3.0 20:47:38 30° SSE 20:50:11 74° ENE 20:55:29 10° N
Iridium 4 Rocket 3.8 20:47:25 22° S 20:51:19 84° E 20:57:17 10° N
Meteor 1-5 Rocket 4.4 20:48:35 10° NNW 20:53:54 64° W 20:57:12 23° S
Cosmos 1869 Rocket 3.8 20:50:52 10° N 20:55:08 53° ENE 20:56:20 40° SE
SPOT 1/Viking Rocket 4.2 20:52:17 19° S 20:55:52 51° W 21:00:56 10° NNW
Cosmos 1743 3.9 20:56:42 10° NNE 21:00:01 27° ENE 21:00:22 27° E
Cosmos 158 Rocket 3.8 20:57:16 10° NNW 21:02:11 86° WSW 21:04:06 38° SSE
Meteor 1-10 Rocket 4.2 20:59:34 19° SSW 21:03:41 82° W 21:09:24 10° N
Cosmos 1536 2.9 21:01:26 10° N 21:05:27 59° E 21:06:10 50° ESE
Cosmos 2297 4.1 21:08:50 36° SE 21:10:10 42° ESE 21:15:29 10° NE
Cosmos 1544 3.5 21:07:26 10° N 21:10:56 46° ENE 21:11:01 46° E
Cosmos 2112 Rocket 4.4 21:05:44 10° NNW 21:11:01 55° ENE 21:12:54 36° ESE
Milstar 3 4.2 21:00:17 10° WSW 21:11:04 29° S 21:13:08 27° SSE
CZ-4C R/B 3.6 21:04:36 10° NW 21:11:40 48° WSW 21:16:26 24° S
Cosmos 1707 Rocket 4.1 21:12:32 39° ESE 21:12:50 39° E 21:16:56 10° NNE
CARTOSAT-1 4.4 21:13:16 28° SSW 21:15:04 44° W 21:19:13 10° NNW
Cosmos 2327 Rocket 4.5 21:09:26 10° N 21:15:54 84° E 21:18:54 34° SSE
USA 307 3.0 21:12:20 10° WNW 21:16:32 56° SW 21:17:05 51° S
ARIANE 5 R/B 3.6 21:15:27 26° SSW 21:17:19 39° W 21:21:25 10° NNW
CZ-4B DEB 4.2 21:18:58 81° WNW 21:18:58 81° WNW 21:22:06 10° NNW
Meteor 2-12 Rocket 4.4 21:13:16 10° N 21:19:21 80° W 21:22:11 34° S
H-2A R/B 3.3 21:20:01 10° NNE 21:24:13 89° E 21:25:08 54° SSW
Cosmos 1238 Rocket 4.2 21:21:08 10° N 21:26:59 44° ENE 21:28:28 36° ESE
Cosmos 2082 Rocket 2.5 21:24:16 10° NNW 21:29:45 57° WSW 21:31:43 37° SSW
USA 308 3.4 21:26:03 10° WNW 21:30:10 45° SW 21:30:15 45° SW
Cosmos 1937 Rocket 3.6 21:31:11 48° SE 21:31:48 51° ESE 21:36:49 10° NNE
ERS-1 Rocket 3.7 21:30:09 31° SSW 21:32:09 46° W 21:37:00 10° NNW
Cosmos 2154 Rocket 4.1 21:27:45 10° NNW 21:34:03 71° W 21:36:54 34° SSW
Cosmos 1461 4.3 21:35:29 28° E 21:35:29 28° E 21:38:23 10° NE
SJ 16-02 3.1 21:33:32 10° SW 21:37:29 31° WNW 21:41:27 10° N
Cosmos 1680 Rocket 3.5 21:32:32 10° NNW 21:37:53 79° WSW 21:39:16 50° S
BREEZE-M DEB (TANK) 3.8 21:37:58 10° WNW 21:38:36 18° WNW 21:38:36 18° WNW
Cosmos 1733 Rocket 3.1 21:39:40 10° N 21:43:57 58° ENE 21:44:08 57° E
SL-24 R/B - RUBIN 2 3.8 21:38:36 10° NW 21:44:06 88° NE 21:45:04 59° SE
Cosmos 962 Rocket 4.4 21:40:04 10° N 21:46:13 87° E 21:48:10 47° S
Cosmos 1515 4.0 21:47:27 56° NE 21:47:27 56° NE 21:50:41 10° NNE
Cosmos 858 Rocket 4.4 21:46:33 57° SSE 21:47:22 67° ESE 21:52:35 10° NNE
Nadezhda 1 Rocket 4.4 21:43:59 24° SSW 21:47:47 59° WNW 21:53:56 10° N
Cosmos 2278 Rocket 4.1 21:49:37 10° WSW 21:54:26 28° NW 21:59:17 10° N
Meteor 1-27 Rocket 4.5 21:52:03 24° SW 21:55:27 51° WNW 22:01:15 10° N
Cosmos 1943 Rocket 2.1 21:54:26 54° S 21:55:37 72° ESE 22:01:13 10° NNE
Cosmos 2369 Rocket 2.6 22:01:38 43° ESE 22:01:40 43° ESE 22:06:58 10° NE
Cosmos 1818 3.5 21:56:17 10° NW 22:01:49 83° NE 22:02:55 58° SE
Cosmos 2084 Rocket 3.4 22:02:34 10° NW 22:06:47 86° WNW 22:06:47 86° WNW
BREEZE-M R/B 4.5 22:09:43 10° WNW 22:10:38 20° NW 22:10:38 20° NW
Cosmos 1898 Rocket 4.1 22:10:32 31° SW 22:12:53 54° WNW 22:18:07 10° NNE
Meteor 1-19 Rocket 4.0 22:12:13 64° S 22:13:03 82° E 22:18:28 10° NNE
Cosmos 2181 Rocket 3.8 22:11:56 53° S 22:13:31 85° E 22:19:41 10° N
Meteor 2-9 Rocket 4.1 22:07:45 10° N 22:13:35 86° E 22:14:38 61° SSE
Gbstr 26 Del rocket 4.0 22:08:53 10° WNW 22:16:18 87° NNE 22:18:36 43° ESE
Terra 3.4 22:16:12 22° WSW 22:17:17 24° W 22:21:10 10° NW
Cosmos 2366 rocket 3.9 22:13:48 10° N 22:20:01 88° E 22:21:27 56° S
Okean 1 3.8 22:23:54 53° WNW 22:23:54 53° WNW 22:27:38 10° N
Cosmos 1340 Rocket 4.4 22:21:25 10° NW 22:24:51 26° W 22:24:53 26° W
Cosmos 372 Rocket 3.7 22:25:47 77° S 22:26:08 85° ESE 22:31:16 10° NNE
SeaSat 1 4.5 22:23:29 10° ENE 22:25:21 15° E 22:25:21 15° E
Cosmos 1862 Rocket 3.8 22:27:34 62° WNW 22:27:34 62° WNW 22:31:52 10° N
Cosmos 44 4.0 22:22:51 10° NW 22:27:58 44° WSW 22:28:04 44° WSW
Cosmos 1703 Rocket 4.3 22:28:53 43° ENE 22:28:53 43° ENE 22:32:31 10° NNE
ERBS 4.1 22:25:24 10° NW 22:27:12 29° NW 22:27:12 29° NW
Cosmos 2263 4.4 22:30:07 53° ESE 22:30:18 53° ESE 22:35:55 10° NE
Cosmos 1782 Rocket 4.5 22:27:32 10° N 22:31:35 39° ENE 22:31:35 39° ENE
Cosmos 489 Rocket 4.5 22:28:44 10° NNW 22:34:56 70° WSW 22:36:08 56° SSW
USA 215 4.0 22:29:31 10° E 22:35:45 49° NNE 22:41:59 10° NW
Meteor 2-4 Rocket 3.6 22:35:54 66° SSE 22:36:37 76° E 22:42:15 10° NNE
ATLAS 2AS CENTAUR R/B 3.3 22:33:10 10° NW 22:39:47 39° WSW 22:40:56 37° SW
Spot 4 4.0 22:42:00 62° WSW 22:42:07 62° WSW 22:46:57 10° NNW
Okean 1-7 3.4 22:43:30 54° NE 22:43:30 54° NE 22:47:04 10° NNE
Cosmos 2218 Rocket 4.2 22:37:38 10° NNW 22:43:50 61° W 22:45:17 49° SW
Cosmos 1607 4.0 22:43:51 59° SSE 22:44:41 65° ESE 22:51:07 10° NE
Cosmos 1356 Rocket 4.4 22:45:48 10° N 22:49:36 41° ENE 22:49:36 41° ENE
Cosmos 1125 Rocket 4.0 22:50:20 47° E 22:50:20 47° E 22:55:03 10° NNE
Cosmos 1867 3.4 22:54:36 76° SE 22:54:45 76° ESE 23:00:14 10° NE
Cosmos 1833 4.3 22:49:57 10° NNW 22:55:44 73° ENE 22:56:44 59° ESE
Cosmos 1975 4.0 22:53:36 10° NNW 22:56:35 35° WNW 22:56:35 35° WNW
Lacrosse 5 3.8 23:03:14 18° E 23:03:14 18° E 23:05:02 10° ENE
ALOS 2 2.9 23:01:54 61° WNW 23:01:54 61° WNW 23:05:48 10° NNW
Nadezhda 3 Rocket 3.9 23:01:03 61° SSE 23:02:06 74° E 23:08:19 10° NNE
RESURS DK-1 2.9 22:58:01 10° NNW 23:01:28 59° NNW 23:01:28 59° NNW
Meteor 1-12 Rocket 4.1 23:05:57 10° N 23:11:51 83° E 23:12:37 68° SSE
Cosmos 1378 4.3 23:13:26 41° NNE 23:13:26 41° NNE 23:15:58 10° NNE
Cosmos 1461 4.4 23:11:46 30° W 23:13:15 38° NW 23:17:34 10° NNE
COBE Rocket 4.0 23:16:37 65° WSW 23:16:40 65° W 23:21:48 10° NNW
COSMOS 2487 4.5 23:19:55 10° N 23:22:11 24° NE 23:22:11 24° NE
Gblst 52 Del rocket 4.3 23:19:36 10° WNW 23:26:11 62° SW 23:26:14 62° SW
Sich 1 Rocket 3.8 23:21:45 10° N 23:26:01 69° NE 23:26:01 69° NE
PSLV R/B 4.2 23:23:46 10° NNE 23:27:27 49° ENE 23:27:27 49° ENE
Cosmos 1048 Rocket 4.3 23:24:11 10° NNW 23:29:11 52° W 23:29:11 52° W
Cosmos 2344 4.3 23:20:48 10° NW 23:30:09 88° NE 23:39:42 21° SE
Cosmos 1300 Rocket 3.7 23:33:20 10° N 23:37:19 71° NNE 23:37:19 71° NNE
Cosmos 1269 Rocket 4.3 23:33:48 10° NNW 23:39:04 60° ENE 23:40:02 51° ESE
ATLAS CENTAUR R/B 2.2 23:40:13 43° N 23:40:13 43° N 23:43:06 10° NNE
Cosmos 1943 Rocket 4.2 23:35:53 11° W 23:39:56 22° NW 23:44:17 10° N
Thor Agena Rocket 3.6 23:36:14 10° N 23:41:27 68° WNW 23:42:03 62° WSW
Okean 2 Rocket 3.2 23:40:10 10° N 23:44:14 71° NE 23:44:14 71° NE
Cosmos 2151 Rocket 3.9 23:41:07 10° N 23:45:33 61° ENE 23:45:33 61° ENE
Cosmos 2369 Rocket 3.5 23:43:23 24° W 23:45:48 33° NW 23:50:55 10° NNE
BREEZE-M DEB (TANK) 4.2 23:37:58 10° WNW 23:47:07 47° WSW 23:47:07 47° WSW
Cosmos 1733 4.0 23:44:51 10° N 23:47:41 48° N 23:47:41 48° N
Meteor 1-15 Rocket 4.1 23:44:13 10° NNW 23:49:55 80° W 23:50:38 68° SSW
EO 1 Delta rocket 4.0 23:52:00 72° S 23:52:33 85° W 23:58:36 10° N
EO 1 Del DPAF 4.0 23:51:13 10° NNE 23:54:03 50° N 23:54:03 50° N
